[[{"header":{"parameterUnit":"m.s-1","parameterCategory":1,"la1":30.2991,"la2":30.254,"lo1":-89.0895,"lo2":-89.0444,"dy":0.0017,"dx":0.0017,"nx":28,"ny":28,"refTime":"2025-02-13T03:00:00:Z","depth":0,"parameterNumber":2,"parameterNumberName":"U-component_of_WINDS"},"data":[0,0,0,0,0,0,0,0,0,0,0,0,0,0,0,0,0,0,0,0,0,0,0,0,0,0,0,0,0,0,0,0,0,0,0,0,0,0,0,0,0,0,0,0,0,0,0,0,0,0,0,0,0,0,0,0,0,0,3.6264,3.6265,0,3.6363,3.6364,3.6365,3.6342,3.634,3.6338,3.6336,3.6436,3.644,3.6445,0,0,0,0,0,0,0,0,0,0,0,0,0,3.6054,3.6058,3.6264,3.6265,3.6266,3.6362,3.6364,3.6365,3.6342,3.634,3.6337,3.6335,3.6434,3.644,3.6445,0,0,0,0,0,0,0,0,0,0,0,0,0,3.6148,3.6059,3.6264,3.6266,3.6268,3.6362,3.6364,3.6365,3.6342,3.634,3.6337,3.6334,3.6433,3.6439,3.6446,3.6543,0,0,3.6466,3.6469,0,0,0,0,0,0,0,0,3.6143,3.6156,3.6265,3.6266,3.6268,3.6337,3.6326,3.6425,3.6343,3.6314,3.6336,3.6333,3.6405,3.6414,3.6439,3.6548,3.6552,3.6467,3.6471,3.6473,3.6475,0,0,0,0,0,0,0,3.6136,3.6151,3.6303,3.6266,3.6268,3.6262,3.6272,3.6345,3.6374,3.6316,3.6315,3.6327,3.6405,3.6432,3.6441,3.6554,3.6466,3.6472,3.6476,3.6479,3.6748,3.6751,0,0,0,0,0,0,3.6128,3.6146,3.63,3.6306,3.6197,3.6268,3.628,3.6318,3.6373,3.6379,3.6329,3.6326,3.6422,3.6433,3.6444,3.6563,3.6473,3.648,3.6483,3.6745,3.6749,3.6752,0,0,0,0,0,0,3.6124,3.6142,3.6296,3.6226,3.6245,3.6275,3.6318,3.6321,3.6348,3.6383,3.6388,3.6351,3.6421,3.6435,3.6519,3.6566,3.6482,3.6489,3.6741,3.6746,3.6751,3.6801,0,0,0,0,0,0,3.6118,3.6141,3.6179,3.6227,3.6248,3.637,3.632,3.6325,3.636,3.6356,3.6405,3.6411,3.6419,3.6509,3.6526,3.6574,3.6494,3.6737,3.6744,3.6749,3.6795,3.6807,3.6816,0,0,0,0,0,3.6111,3.6188,3.6181,3.6199,3.6296,3.6372,3.6385,3.6394,3.6363,3.6401,3.6424,3.6409,3.6558,3.6518,3.6536,3.6587,3.6734,3.6742,3.6749,3.679,3.6804,3.6816,0,0,0,0,0,0,3.6144,3.6195,3.6187,3.6282,3.6323,3.6368,3.6417,3.6408,3.6458,3.6452,3.646,3.6472,3.6558,3.658,3.6535,3.6684,3.6642,3.6653,3.6667,3.6681,3.6691,3.6685,3.6499,0,0,0,0,0,3.6163,3.6221,3.6261,3.6342,3.6363,3.6386,3.642,3.6423,3.6465,3.6482,3.6511,3.6553,3.6609,3.6646,3.6699,3.6797,3.6808,3.6841,3.6852,3.6861,3.6871,3.6925,3.6941,3.6776,3.6776,3.6776,0,0,3.6202,3.6237,3.6273,3.6349,3.6382,3.6441,3.6401,3.6465,3.651,3.6492,3.6574,3.6596,3.6643,3.6735,3.6777,3.6757,3.6918,3.687,3.6876,3.6882,3.6934,3.695,3.6964,3.6781,3.678,3.6779,0,0,3.6304,3.6336,3.6407,3.644,3.6489,3.6504,3.6521,3.6568,3.6582,3.6665,3.6653,3.6705,3.6801,3.6835,3.6865,3.698,3.6969,3.6997,3.7054,3.7107,3.712,3.7131,3.7174,3.7189,3.7007,3.7007,3.7007,0,3.6347,3.6437,3.6444,3.6511,3.6545,3.6532,3.6604,3.6635,3.6699,3.6723,3.6699,3.682,3.6851,3.6951,3.6979,3.7003,3.7023,3.6992,3.7117,3.7129,3.714,3.718,3.7196,3.701,3.701,3.7009,3.7009,0,3.6487,3.6549,3.6601,3.6664,3.6704,3.6772,3.679,3.6829,3.6829,3.6846,3.693,3.6966,3.7027,3.7051,3.705,3.7151,3.7137,3.7115,3.7073,3.7159,3.7197,3.7212,3.7015,3.7014,3.7013,3.7012,0,0,3.6614,3.6681,3.67,3.6729,3.6782,3.683,3.6898,3.6958,3.6992,3.7036,3.7094,3.7175,3.7156,3.719,3.7193,3.7239,3.733,3.7212,3.7213,3.7234,3.7444,3.7461,3.7479,3.7321,3.7324,3.7327,3.744,0,3.6722,3.6843,3.6852,3.6961,3.7019,3.7007,3.7066,3.7105,3.7123,3.7174,3.7193,3.7252,3.7221,3.7241,3.7287,3.7309,3.7372,3.7301,3.7376,3.7378,3.7366,3.7499,3.7517,3.7623,3.7455,3.7458,3.7459,0,3.6865,3.6915,3.703,3.7076,3.71,3.7154,3.721,3.7259,3.7302,3.7312,3.735,3.7347,3.7416,3.737,3.7466,3.7418,3.7448,3.7464,3.7468,3.7477,3.7425,3.7512,3.7657,3.7673,3.7483,3.7481,3.7479,0,3.6949,3.7044,3.7125,3.715,3.7205,3.7243,3.7267,3.7308,3.7344,3.7392,3.7416,3.7471,3.7502,3.7545,3.7557,3.7522,3.7653,3.7608,3.7664,3.7664,3.7693,3.7692,3.7846,3.771,3.771,3.771,3.771,0,3.707,3.7141,3.7164,3.7214,3.7294,3.7302,3.738,3.7402,3.7439,3.7493,3.7484,3.7535,3.7547,3.76,3.7609,3.7688,3.7702,3.7712,3.7714,3.7714,3.7713,3.7735,3.7729,3.7714,3.7713,3.7712,3.7712,0,3.7177,3.7195,3.7284,3.7328,3.7341,3.7398,3.7436,3.7484,3.75,3.7569,3.7585,3.7611,3.7673,3.7689,3.7762,3.7769,3.7862,3.7856,3.7848,3.7848,3.7904,3.7899,3.808,3.8104,3.7951,3.7952,3.7953,0,3.7254,3.7309,3.736,3.7396,3.7422,3.748,3.7517,3.7527,3.7565,3.7619,3.7661,3.7722,3.7771,3.7871,3.7896,3.7952,3.7948,3.8008,3.7957,3.7955,3.7951,3.7949,3.7955,3.8018,3.802,3.8021,3.8022,0,3.739,3.7396,3.745,3.7507,3.7551,3.7596,3.7639,3.7668,3.7684,3.7728,3.7791,3.783,3.7905,3.7966,3.8023,3.8047,3.8038,3.8038,3.8054,3.8055,3.8049,3.8055,3.7876,3.8034,3.8033,3.8032,3.8031,3.8031,3.7486,3.7534,3.7578,3.7638,3.7671,3.7711,3.7759,3.7782,3.7835,3.7898,3.79,3.7969,3.8011,3.8087,3.8114,3.8168,3.815,3.8174,3.818,3.8186,3.8192,3.8039,3.8178,3.8178,3.8178,3.8178,3.8177,0,3.7622,3.7649,3.7704,3.7765,3.7813,3.7799,3.7846,3.7886,3.7948,3.7988,3.8037,3.811,3.8169,3.8198,3.8256,3.8294,3.8291,3.8309,3.8308,3.8314,3.8203,3.8184,3.8311,3.8311,3.8311,3.8311,3.8311,3.8311,3.7699,3.7781,3.7792,3.789,3.7916,3.7985,3.8013,3.805,3.8082,3.8165,3.8214,3.8232,3.8268,3.8329,3.8382,3.8389,3.8412,3.8433,3.8438,3.8335,3.8321,3.8308,3.829,3.8437,3.8437,3.8543,3.8544,3.8545]},{"header":{"parameterUnit":"m.s-1","parameterCategory":1,"la1":30.2991,"la2":30.254,"lo1":-89.0895,"lo2":-89.0444,"dy":0.0017,"dx":0.0017,"nx":28,"ny":28,"refTime":"2025-02-13T03:00:00:Z","depth":0,"parameterNumber":3,"parameterNumberName":"V-component_of_WINDS"},"data":[0,0,0,0,0,0,0,0,0,0,0,0,0,0,0,0,0,0,0,0,0,0,0,0,0,0,0,0,0,0,0,0,0,0,0,0,0,0,0,0,0,0,0,0,0,0,0,0,0,0,0,0,0,0,0,0,0,0,-3.0835,-3.0829,0,-3.0237,-3.023,-3.0223,-3.0076,-3.008,-3.0084,-3.0087,-2.9455,-2.9435,-2.9415,0,0,0,0,0,0,0,0,0,0,0,0,0,-3.1834,-3.1816,-3.0836,-3.0828,-3.0821,-3.0238,-3.023,-3.0222,-3.0075,-3.008,-3.0085,-3.0089,-2.9462,-2.9438,-2.9413,0,0,0,0,0,0,0,0,0,0,0,0,0,-3.1334,-3.1811,-3.0837,-3.0678,-3.0658,-3.024,-3.023,-3.0219,-3.0074,-3.008,-3.0086,-3.0092,-2.947,-2.944,-2.941,-2.9101,0,0,-2.9316,-2.9302,0,0,0,0,0,0,0,0,-3.1363,-3.1297,-3.0709,-3.0688,-3.0665,-3.0238,-3.035,-2.9844,-3.0073,-3.0295,-3.0088,-3.0094,-2.9709,-2.9659,-2.9533,-2.9072,-2.9045,-2.9313,-2.9294,-2.9281,-2.9272,0,0,0,0,0,0,0,-3.1397,-3.1322,-3.0598,-3.07,-3.0673,-3.0631,-3.0566,-3.0253,-2.9975,-3.0276,-3.0264,-3.0196,-2.9698,-2.9564,-2.9517,-2.9035,-2.9314,-2.9286,-2.9268,-2.9255,-2.8289,-2.8282,0,0,0,0,0,0,-3.1462,-3.1352,-3.0617,-3.058,-3.1036,-3.0608,-3.0536,-3.0368,-2.9979,-2.9926,-3.0192,-3.0192,-2.9613,-2.9554,-2.9495,-2.9106,-2.9281,-2.9252,-2.9235,-2.8296,-2.8287,-2.8279,0,0,0,0,0,0,-3.1484,-3.1398,-3.0641,-3.0963,-3.0863,-3.0585,-3.0398,-3.0353,-3.0219,-2.9916,-2.9863,-3.0106,-2.9615,-2.9538,-2.9201,-2.9082,-2.9239,-2.9211,-2.8305,-2.8293,-2.8283,-2.8329,0,0,0,0,0,0,-3.1514,-3.1407,-3.1291,-3.0962,-3.0847,-3.0363,-3.039,-3.0337,-3.0168,-3.0162,-2.9821,-2.977,-2.9614,-2.9248,-2.9171,-2.9043,-2.9187,-2.8314,-2.83,-2.8287,-2.8337,-2.8321,-2.8308,0,0,0,0,0,-3.155,-3.1323,-3.1286,-3.1198,-3.0697,-3.0357,-3.029,-3.0121,-3.016,-3.0037,-2.9843,-2.9781,-2.911,-2.9215,-2.9126,-2.8988,-2.832,-2.8304,-2.8288,-2.8343,-2.8324,-2.8308,0,0,0,0,0,0,-3.1638,-3.1277,-3.1231,-3.0893,-3.0658,-3.0333,-3.0173,-3.0106,-2.985,-2.9854,-2.9649,-2.9573,-2.9249,-2.9085,-2.9209,-2.8668,-2.8715,-2.868,-2.8787,-2.8766,-2.8752,-2.8796,-2.9161,0,0,0,0,0,-3.162,-3.138,-3.1075,-3.0805,-3.0691,-3.0454,-3.0299,-3.019,-2.9934,-2.9832,-2.9613,-2.9362,-2.9095,-2.8922,-2.8659,-2.8314,-2.8235,-2.8175,-2.8161,-2.815,-2.8121,-2.7924,-2.7892,-2.8226,-2.8226,-2.8227,0,0,-3.1576,-3.135,-3.1209,-3.0818,-3.0622,-3.0373,-3.037,-3.0105,-2.9916,-2.9789,-2.9459,-2.9291,-2.8997,-2.8656,-2.8493,-2.8508,-2.8012,-2.813,-2.8124,-2.8098,-2.7904,-2.7873,-2.7845,-2.8215,-2.8217,-2.8219,0,0,-3.1369,-3.1176,-3.0929,-3.0736,-3.0443,-3.0287,-3.0229,-2.9914,-2.9799,-2.9466,-2.9366,-2.9136,-2.868,-2.8475,-2.8311,-2.8031,-2.7962,-2.7951,-2.7872,-2.7683,-2.7656,-2.7632,-2.7528,-2.7494,-2.7924,-2.7924,-2.7924,0,-3.1349,-3.0975,-3.081,-3.0551,-3.038,-3.0263,-3.0008,-2.9826,-2.946,-2.9342,-2.9366,-2.8793,-2.8587,-2.8194,-2.8127,-2.8,-2.7922,-2.7986,-2.7675,-2.7649,-2.7623,-2.7522,-2.7484,-2.7924,-2.7924,-2.7924,-2.7924,0,-3.0964,-3.0707,-3.0542,-3.0199,-3.001,-2.9755,-2.9545,-2.9373,-2.9282,-2.9122,-2.8783,-2.8534,-2.8218,-2.8118,-2.8023,-2.7711,-2.7729,-2.7717,-2.7758,-2.7595,-2.7496,-2.7456,-2.7924,-2.7924,-2.7924,-2.7924,0,0,-3.079,-3.0364,-3.0305,-3.0148,-2.9818,-2.9612,-2.9351,-2.9049,-2.8904,-2.8656,-2.8428,-2.8048,-2.8035,-2.7849,-2.7731,-2.7566,-2.7356,-2.7572,-2.7562,-2.7537,-2.6993,-2.7002,-2.696,-2.7312,-2.7304,-2.7298,-2.7017,0,-3.0539,-3.0075,-2.9919,-2.953,-2.9288,-2.9175,-2.8946,-2.8716,-2.8561,-2.8328,-2.8154,-2.7887,-2.7893,-2.778,-2.7612,-2.7418,-2.7243,-2.7436,-2.7091,-2.7081,-2.7164,-2.6908,-2.6915,-2.6662,-2.6977,-2.6971,-2.6966,0,-3.0182,-2.9937,-2.9527,-2.9229,-2.9121,-2.8919,-2.863,-2.8411,-2.8147,-2.8045,-2.7842,-2.7737,-2.7454,-2.7518,-2.7123,-2.7258,-2.7108,-2.6992,-2.6978,-2.6934,-2.701,-2.6853,-2.6577,-2.6538,-2.6904,-2.6909,-2.6913,0,-3.0093,-2.9659,-2.9357,-2.9226,-2.8872,-2.8732,-2.8577,-2.832,-2.8148,-2.7894,-2.778,-2.7495,-2.7337,-2.7116,-2.6935,-2.6999,-2.6555,-2.6605,-2.6457,-2.6462,-2.6364,-2.6371,-2.6055,-2.6277,-2.6277,-2.6278,-2.6279,0,-2.9825,-2.9577,-2.9312,-2.9126,-2.8844,-2.8667,-2.8391,-2.8228,-2.8001,-2.7777,-2.766,-2.7452,-2.7228,-2.6989,-2.6845,-2.6538,-2.6468,-2.6374,-2.6338,-2.6381,-2.6393,-2.6276,-2.6287,-2.6268,-2.627,-2.6272,-2.6274,0,-2.9674,-2.9488,-2.915,-2.8845,-2.8763,-2.8568,-2.8303,-2.8115,-2.7959,-2.7677,-2.76,-2.735,-2.7063,-2.6863,-2.6492,-2.6396,-2.6062,-2.603,-2.6153,-2.6134,-2.5997,-2.6012,-2.559,-2.5524,-2.5796,-2.5794,-2.5792,0,-2.9514,-2.9321,-2.8998,-2.8843,-2.869,-2.8441,-2.8267,-2.8085,-2.7908,-2.7595,-2.7444,-2.7151,-2.6906,-2.6451,-2.6233,-2.5948,-2.5905,-2.5778,-2.5861,-2.5911,-2.5897,-2.591,-2.5888,-2.5763,-2.5761,-2.5759,-2.5758,0,-2.9247,-2.9165,-2.8923,-2.8648,-2.8447,-2.822,-2.7991,-2.787,-2.7647,-2.7453,-2.7162,-2.6973,-2.6598,-2.6306,-2.6002,-2.5835,-2.5756,-2.5735,-2.5685,-2.5724,-2.5802,-2.5754,-2.6114,-2.5744,-2.5745,-2.5746,-2.5747,-2.5747,-2.9082,-2.8906,-2.8651,-2.8385,-2.8196,-2.7986,-2.7795,-2.7618,-2.7373,-2.7058,-2.6965,-2.6661,-2.64,-2.5985,-2.5815,-2.5571,-2.5579,-2.5507,-2.5488,-2.5472,-2.5471,-2.5848,-2.5515,-2.5515,-2.5515,-2.5515,-2.5515,0,-2.8806,-2.8638,-2.8396,-2.8084,-2.7873,-2.7828,-2.7573,-2.7398,-2.7135,-2.6902,-2.6666,-2.633,-2.6048,-2.5811,-2.5517,-2.5367,-2.5324,-2.5296,-2.5301,-2.5264,-2.5482,-2.5553,-2.5336,-2.5336,-2.5336,-2.5336,-2.5336,-2.5336,-2.8637,-2.8336,-2.8225,-2.7827,-2.7659,-2.7366,-2.7224,-2.7028,-2.6842,-2.6474,-2.6242,-2.6092,-2.5855,-2.5545,-2.5282,-2.5219,-2.5114,-2.5093,-2.5021,-2.5228,-2.5249,-2.5268,-2.5333,-2.5073,-2.5073,-2.4822,-2.482,-2.4818]}]]